Powrót do katalogu

STARLINK-30095

AktywnyŁącznośćVLEO
NORAD 56289·PAYLOAD·🇺🇸 United States

Wystrzelony Apr 19, 2023 z Cape Canaveral Space Force Station

Loading…

Następne Przeloty (najbliższe 24 godziny)

TLE

ŚwieżeSource: CelesTrak SupGP

Epoka: Sep 14, 2026, 21:07 UTC

1 56289C 23056D   26257.88034722  .00012610  00000+0  45670-3 0  2573
2 56289  43.0013 194.5885 0001296 260.8438   7.1466 15.27575508    12

Śledź STARLINK-30095 w czasie rzeczywistym z AllMySat

Download on the App Store